Weather History for Jackson, MS

Change the Weather History Date:

Monday, October 25, 2010

  Actual Average Record
Temperature  
Mean Temperature 74 °F 62 °F  
Max Temperature 88 °F 75 °F 92 °F (1921)
Min Temperature 59 °F 50 °F 31 °F (1965)
Degree Days  
Heating Degree Days 0 5  
Month to date heating degree days 21 67  
Since 1 July heating degree days 21 74  
Cooling Degree Days 9 2  
Month to date cooling degree days 89 94  
Year to date cooling degree days 2709 2220  
Growing Degree Days 24 (Base 50)    
Moisture  
Dew Point 62 °F    
Average Humidity 67    
Maximum Humidity 90    
Minimum Humidity 43    
Precipitation  
Precipitation 0.02 in 0.13 in 2.75 in (1981)
Month to date precipitation 0.25 3.15  
Year to date precipitation 35.53 43.46  
Sea Level Pressure  
Sea Level Pressure 29.77 in    
Wind  
Wind Speed 7 mph (South)    
Max Wind Speed 16 mph    
Max Gust Speed 29 mph    
Visibility 10 miles    
Events Rain    
T = Trace of Precipitation, MM = Missing Value Source: NWS Daily Summary

Daily Weather History Graph

Daily Weather History Graph

Search for Another Location

Airport:

Trip Planner

Search our weather history database for the weather conditions in past years. The results will help you decide how hot, cold, wet, or windy it might be!

Date:

Astronomy

Oct. 25, 2010 Rise Set
Actual Time 7:11 AM CDT 6:16 PM CDT
Civil Twilight 6:46 AM CDT 6:41 PM CDT
Nautical Twilight 6:17 AM CDT 7:10 PM CDT
Astronomical Twilight 5:49 AM CDT 7:38 PM CDT
Moon 7:57 PM CDT (10/25) 9:42 AM CDT (10/25)
Length of Visible Light 11h 55m
Length of Day
11h 04m
Waning Gibbous, 93% of the Moon is Illuminated
Oct 25
Waning Gibbous
Oct 30
Last Quarter
Nov 5
New
Nov 13
First Quarter
Nov 21
Full

Hourly Weather History & Observations

Time (CDT) Temp. Heat Index Dew Point Humidity Pressure Visibility Wind Dir Wind Speed Gust Speed Precip Events Conditions
12:33 AM 71.6 °F - 64.4 °F 78% 29.94 in 10.0 mi NW 20.7 mph 27.6 mph N/A   Overcast
12:44 AM 66.2 °F - 57.2 °F 73% 29.95 in 10.0 mi NW 19.6 mph 39.1 mph 0.00 in Rain Light Rain
12:54 AM 64.0 °F - 57.0 °F 78% 29.94 in 10.0 mi NNW 15.0 mph 27.6 mph 0.00 in Rain Light Rain
1:54 AM 61.0 °F - 57.9 °F 90% 29.91 in 10.0 mi Calm Calm - 0.03 in   Scattered Clouds
2:54 AM 60.1 °F - 57.9 °F 93% 29.88 in 10.0 mi SE 4.6 mph - N/A   Partly Cloudy
3:54 AM 60.1 °F - 57.9 °F 93% 29.87 in 10.0 mi Calm Calm - N/A   Clear
4:54 AM 61.0 °F - 57.0 °F 87% 29.86 in 10.0 mi SSE 6.9 mph - N/A   Clear
5:54 AM 60.1 °F - 55.9 °F 86% 29.85 in 10.0 mi SSE 3.5 mph - N/A   Clear
6:54 AM 62.1 °F - 55.9 °F 80% 29.84 in 10.0 mi SSE 6.9 mph - N/A   Clear
7:54 AM 63.0 °F - 57.0 °F 81% 29.83 in 10.0 mi SSE 8.1 mph - N/A   Clear
8:54 AM 68.0 °F - 62.1 °F 81% 29.83 in 10.0 mi Variable 5.8 mph - N/A   Clear
9:54 AM 73.9 °F - 66.9 °F 79% 29.82 in 9.0 mi Variable 6.9 mph - N/A   Scattered Clouds
10:54 AM 79.0 °F - 66.0 °F 64% 29.81 in 10.0 mi Variable 5.8 mph 19.6 mph N/A   Scattered Clouds
11:54 AM 82.0 °F 83.8 °F 64.9 °F 56% 29.80 in 10.0 mi SW 9.2 mph 18.4 mph N/A   Mostly Cloudy
12:54 PM 84.9 °F 86.1 °F 64.0 °F 49% 29.76 in 10.0 mi SSW 8.1 mph 20.7 mph N/A   Mostly Cloudy
1:54 PM 84.9 °F 85.4 °F 62.1 °F 46% 29.71 in 10.0 mi South 10.4 mph 19.6 mph N/A   Mostly Cloudy
2:54 PM 87.1 °F 87.5 °F 62.1 °F 43% 29.68 in 10.0 mi Variable 6.9 mph 19.6 mph N/A   Mostly Cloudy
3:54 PM 88.0 °F 88.7 °F 63.0 °F 43% 29.67 in 10.0 mi South 10.4 mph 20.7 mph N/A   Mostly Cloudy
4:54 PM 86.0 °F 87.3 °F 64.0 °F 48% 29.65 in 10.0 mi Variable 5.8 mph - N/A   Scattered Clouds
5:54 PM 84.0 °F 84.9 °F 63.0 °F 49% 29.64 in 10.0 mi Variable 5.8 mph 18.4 mph N/A   Scattered Clouds
6:54 PM 82.0 °F 83.1 °F 63.0 °F 52% 29.65 in 10.0 mi South 8.1 mph - N/A   Partly Cloudy
7:54 PM 81.0 °F 82.5 °F 64.0 °F 56% 29.65 in 10.0 mi South 8.1 mph - N/A   Partly Cloudy
8:54 PM 80.1 °F 82.1 °F 66.0 °F 62% 29.65 in 10.0 mi South 9.2 mph - N/A   Partly Cloudy
9:54 PM 79.0 °F - 68.0 °F 69% 29.65 in 10.0 mi South 11.5 mph 26.5 mph N/A   Scattered Clouds
10:32 PM 78.8 °F - 69.8 °F 74% 29.67 in 10.0 mi South 11.5 mph 23.0 mph N/A   Mostly Cloudy
10:54 PM 79.0 °F - 69.1 °F 72% 29.66 in 10.0 mi South 11.5 mph 18.4 mph N/A   Mostly Cloudy
11:54 PM 78.1 °F - 69.1 °F 74% 29.66 in 10.0 mi South 8.1 mph 23.0 mph N/A   Mostly Cloudy